This demonstration page uses our WeatherBlox Daily Observations layout. Learn more.

Left ArrowRight Arrow

Hourly Observations for January 22, 2017

Temp ( °F °C ) Dew Point ( °F °C ) Humidity (%) Winds ( mph kmh ) Pressure ( in mb ) Visibility ( mi km ) Precip ( " mm )
12:15 am 00:15 Partly Cloudy 54 12 50 10 88 88 S 5 7 29.62 1003 10 16.0934 N/A
12:36 am 00:36 Partly Cloudy 54 12 50 10 88 88 S 6 9 29.62 1003 10 16.0934 N/A
12:55 am 00:55 Partly Cloudy 52 11 50 10 94 94 SSE 6 9 29.62 1003 10 16.0934 N/A
1:16 am 01:16 Clear 52 11 50 10 94 94 S 6 9 29.62 1003 10 16.0934 N/A
1:35 am 01:35 Partly Cloudy 52 11 50 10 94 94 S 5 7 29.62 1003 10 16.0934 N/A
1:55 am 01:55 Partly Cloudy 50 10 48 9 94 94 S 5 7 29.59 1002 10 16.0934 N/A
2:16 am 02:16 Clear 50 10 48 9 94 94 SSE 3 6 29.59 1002 7 11.26538 N/A
2:35 am 02:35 Clear 48 9 48 9 100 100 SSE 3 6 29.59 1002 7 11.26538 N/A
2:56 am 02:56 Clear 45 7 45 7 100 100 SE 6 9 29.62 1003 4 6.43736 N/A
3:15 am 03:15 Clear 46 8 46 8 100 100 Calm 29.56 1001 5 8.0467 N/A
3:35 am 03:35 Partly Cloudy 46 8 46 8 100 100 E 3 6 29.56 1001 5 8.0467 N/A
3:56 am 03:56 Mostly Cloudy 45 7 45 7 100 100 N 8 13 29.59 1002 1.25 2.011675 N/A
4:15 am 04:15 Partly Cloudy 48 9 48 9 100 100 NE 7 11 29.56 1001 7 11.26538 N/A
4:36 am 04:36 Partly Cloudy 46 8 46 8 100 100 ENE 6 9 29.59 1002 7 11.26538 N/A
4:55 am 04:55 Partly Cloudy 46 8 46 8 100 100 E 7 11 29.59 1002 7 11.26538 N/A
5:16 am 05:16 Mostly Cloudy 46 8 46 8 100 100 E 6 9 29.56 1001 7 11.26538 N/A
5:35 am 05:35 Cloudy 46 8 46 8 100 100 E 5 7 29.56 1001 7 11.26538 N/A
5:55 am 05:55 Cloudy 46 8 45 7 93 93 E 7 11 29.56 1001 7 11.26538 N/A
6:16 am 06:16 Partly Cloudy 46 8 45 7 93 93 E 7 11 29.56 1001 7 11.26538 N/A
6:35 am 06:35 Clear 46 8 46 8 100 100 E 7 11 29.56 1001 10 16.0934 N/A
6:56 am 06:56 Clear 46 8 45 7 93 93 E 6 9 29.56 1001 10 16.0934 N/A
7:15 am 07:15 Clear 48 9 46 8 94 94 E 8 13 29.56 1001 10 16.0934 N/A
7:35 am 07:35 Partly Cloudy 48 9 46 8 94 94 E 8 13 29.59 1002 10 16.0934 N/A
7:56 am 07:56 Cloudy 48 9 46 8 94 94 ESE 9 15 29.59 1002 10 16.0934 N/A
8:15 am 08:15 Cloudy 48 9 48 9 100 100 ESE 6 9 29.59 1002 10 16.0934 N/A
8:36 am 08:36 Cloudy 48 9 46 8 94 94 E 3 6 29.59 1002 7 11.26538 N/A
8:55 am 08:55 Cloudy 48 9 48 9 100 100 ESE 6 9 29.59 1002 5 8.0467 N/A
9:15 am 09:15 Partly Cloudy 50 10 48 9 94 94 ESE 5 7 29.59 1002 5 8.0467 N/A
9:36 am 09:36 Sunny 50 10 48 9 94 94 E 5 7 29.59 1002 5 8.0467 N/A
9:55 am 09:55 Sunny 52 11 48 9 88 88 E 6 9 29.59 1002 5 8.0467 N/A
10:16 am 10:16 Sunny 52 11 50 10 94 94 E 5 7 29.59 1002 7 11.26538 N/A
10:35 am 10:35 Sunny 54 12 50 10 88 88 Calm 29.59 1002 7 11.26538 N/A
10:56 am 10:56 Sunny 54 12 50 10 88 88 ENE 5 7 29.59 1002 10 16.0934 N/A
11:15 am 11:15 Sunny 55 13 50 10 82 82 ENE 5 7 29.59 1002 10 16.0934 N/A
11:35 am 11:35 Sunny 55 13 52 11 88 88 E 5 7 29.56 1001 10 16.0934 N/A
11:56 am 11:56 Sunny 55 13 52 11 88 88 E 3 6 29.56 1001 10 16.0934 N/A
12:15 pm 12:15 Sunny 55 13 52 11 88 88 ENE 5 7 29.56 1001 10 16.0934 N/A
12:36 pm 12:36 Sunny 57 14 52 11 82 82 ENE 6 9 29.53 1000 10 16.0934 N/A
12:55 pm 12:55 Sunny 57 14 52 11 82 82 NE 6 9 29.53 1000 10 16.0934 N/A
1:15 pm 13:15 Sunny 57 14 52 11 82 82 NE 7 11 29.5 999 10 16.0934 N/A
1:35 pm 13:35 Sunny 57 14 52 11 82 82 N 7 11 29.5 999 10 16.0934 N/A
1:56 pm 13:56 Sunny 59 15 52 11 77 77 NNE 7 11 29.5 999 10 16.0934 N/A
2:15 pm 14:15 Sunny 57 14 52 11 82 82 NNE 6 9 29.5 999 10 16.0934 N/A
2:35 pm 14:35 Sunny 59 15 52 11 77 77 NNE 7 11 29.5 999 10 16.0934 N/A
2:56 pm 14:56 Sunny 59 15 52 11 77 77 NNE 7 11 29.5 999 10 16.0934 N/A
3:15 pm 15:15 Partly Cloudy 59 15 52 11 77 77 NNE 7 11 29.5 999 10 16.0934 N/A
3:36 pm 15:36 Cloudy 59 15 52 11 77 77 N 9 15 29.5 999 10 16.0934 N/A
3:55 pm 15:55 Cloudy 57 14 54 12 88 88 N 8 13 29.5 999 10 16.0934 N/A
4:15 pm 16:15 Mostly Cloudy 57 14 52 11 82 82 NNE 8 13 29.5 999 10 16.0934 N/A
4:36 pm 16:36 Mostly Cloudy 57 14 52 11 82 82 N 10 17 29.5 999 10 16.0934 N/A
4:55 pm 16:55 Cloudy 57 14 52 11 82 82 NNE 10 17 29.5 999 10 16.0934 N/A
5:16 pm 17:16 Mostly Cloudy 57 14 52 11 82 82 NNE 10 17 29.47 998 10 16.0934 N/A
5:35 pm 17:35 Partly Cloudy 55 13 50 10 82 82 NNE 10 17 29.47 998 10 16.0934 N/A
5:55 pm 17:55 Clear 55 13 50 10 82 82 NNE 12 19 29.47 998 10 16.0934 N/A
6:16 pm 18:16 Clear 54 12 50 10 88 88 NNE 10 17 29.47 998 10 16.0934 N/A
6:35 pm 18:35 Clear 54 12 50 10 88 88 NNE 8 13 29.5 999 10 16.0934 N/A
6:56 pm 18:56 Clear 54 12 50 10 88 88 NNE 13 20 29.5 999 10 16.0934 N/A
7:16 pm 19:16 Clear 54 12 52 11 94 94 NNE 13 20 29.5 999 10 16.0934 N/A
7:35 pm 19:35 Clear 54 12 50 10 88 88 NNE 13 20 29.53 1000 10 16.0934 N/A
7:56 pm 19:56 Clear 54 12 50 10 88 88 NNE 10 17 29.53 1000 10 16.0934 N/A
8:15 pm 20:15 Mostly Cloudy 54 12 50 10 88 88 NNE 9 15 29.53 1000 10 16.0934 N/A
8:35 pm 20:35 Cloudy 54 12 50 10 88 88 N 12 19 29.53 1000 10 16.0934 N/A
8:56 pm 20:56 Cloudy 52 11 50 10 94 94 N 10 17 29.53 1000 10 16.0934 N/A
9:15 pm 21:15 Mostly Cloudy 52 11 50 10 94 94 N 12 19 29.53 1000 7 11.26538 N/A
9:35 pm 21:35 Clear 52 11 50 10 94 94 N 14 22 29.53 1000 7 11.26538 N/A
9:56 pm 21:56 Clear 50 10 48 9 94 94 N 13 20 29.53 1000 7 11.26538 N/A
10:15 pm 22:15 Clear 50 10 48 9 94 94 N 13 20 29.53 1000 7 11.26538 N/A
10:36 pm 22:36 Clear 50 10 48 9 94 94 N 13 20 29.53 1000 7 11.26538 N/A
10:56 pm 22:56 Clear 50 10 48 9 94 94 N 13 20 29.53 1000 7 11.26538 N/A
11:15 pm 23:15 Partly Cloudy 48 9 48 9 100 100 NNE 14 22 29.53 1000 7 11.26538 N/A
11:36 pm 23:36 Mostly Cloudy 48 9 48 9 100 100 N 13 20 29.53 1000 5 8.0467 N/A
11:55 pm 23:55 Partly Cloudy 48 9 46 8 94 94 N 13 20 29.53 1000 5 8.0467 N/A

Powered by AerisWeather